H1 CPF 2 NER 2025 11 20 9 324 01 glonass141 H2 1908801 9141 44850 2025 11 20 0 0 0 2025 11 23 23 45 0 900 1 1 0 0 0 1 H9 10 0 60999 0.00000 0 -20908797.898 -12157547.116 -8039527.693 10 0 60999 900.00000 0 -19855495.515 -11597502.642 -10988684.955 10 0 60999 1800.00000 0 -18425895.418 -11024345.847 -13723804.597 10 0 60999 2700.00000 0 -16643658.790 -10494658.538 -16191564.167 10 0 60999 3600.00000 0 -14544976.250 -10060444.463 -18343850.831 10 0 60999 4500.00000 0 -12177256.908 -9766775.359 -20138709.397 10 0 60999 5400.00000 0 -9597354.933 -9649745.235 -21541167.868 10 0 60999 6300.00000 0 -6869407.724 -9734820.544 -22523923.876 10 0 60999 7200.00000 0 -4062376.303 -10035656.831 -23067878.387 10 0 60999 8100.00000 0 -1247390.982 -10553432.380 -23162506.292 10 0 60999 9000.00000 0 1504986.627 -11276727.137 -22806056.966 10 0 60999 9900.00000 0 4127470.803 -12181951.926 -22005581.311 10 0 60999 10800.00000 0 6558615.345 -13234309.472 -20776785.353 10 0 60999 11700.00000 0 8745127.165 -14389246.155 -19143713.863 10 0 60999 12600.00000 0 10643834.155 -15594332.622 -17138270.856 10 0 60999 13500.00000 0 12223226.468 -16791493.303 -14799587.019 10 0 60999 14400.00000 0 13464508.537 -17919490.213 -12173247.051 10 0 60999 15300.00000 0 14362119.812 -18916555.778 -9310392.698 10 0 60999 16200.00000 0 14923704.732 -19723063.368 -6266719.610 10 0 60999 17100.00000 0 15169535.596 -20284122.800 -3101388.163 10 0 60999 18000.00000 0 15131414.944 -20551991.479 124129.956 10 0 60999 18900.00000 0 14851105.805 -20488199.914 3347246.550 10 0 60999 19800.00000 0 14378357.770 -20065302.554 6505469.634 10 0 60999 20700.00000 0 13768613.418 -19268180.884 9537610.446 10 0 60999 21600.00000 0 13080492.658 -18094844.607 12384961.591 10 0 60999 22500.00000 0 12373161.298 -16556697.818 14992424.041 10 0 60999 23400.00000 0 11703694.526 -14678259.309 17309561.934 10 0 60999 24300.00000 0 11124545.677 -12496348.713 19291565.881 10 0 60999 25200.00000 0 10681225.858 -10058772.068 20900107.390 10 0 60999 26100.00000 0 10410290.931 -7422560.780 22104069.181 10 0 60999 27000.00000 0 10337719.413 -4651836.012 22880138.539 10 0 60999 27900.00000 0 10477748.623 -1815385.591 23213253.280 10 0 60999 28800.00000 0 10832217.497 1015947.841 23096892.431 10 0 60999 29700.00000 0 11390443.766 3771961.160 22533206.286 10 0 60999 30600.00000 0 12129641.264 6385757.885 21532983.167 10 0 60999 31500.00000 0 13015860.961 8796279.265 20115452.849 10 0 60999 32400.00000 0 14005417.761 10950595.851 18307929.376 10 0 60999 33300.00000 0 15046744.859 12805865.440 16145298.733 10 0 60999 34200.00000 0 16082599.467 14330876.554 13669359.697 10 0 60999 35100.00000 0 17052528.657 15507113.315 10928028.990 10 0 60999 36000.00000 0 17895492.647 16329297.083 7974424.618 10 0 60999 36900.00000 0 18552535.531 16805381.676 4865843.995 10 0 60999 37800.00000 0 18969390.730 16956001.862 1662655.893 10 0 60999 38700.00000 0 19098910.493 16813397.758 -1572872.616 10 0 60999 39600.00000 0 18903215.499 16419860.087 -4777791.178 10 0 60999 40500.00000 0 18355472.018 15825761.841 -7889698.906 10 0 60999 41400.00000 0 17441219.506 15087259.772 -10847969.873 10 0 60999 42300.00000 0 16159190.427 14263763.544 -13594946.212 10 0 60999 43200.00000 0 14521585.677 13415280.546 -16077074.264 10 0 60999 44100.00000 0 12553792.172 12599749.874 -18245960.359 10 0 60999 45000.00000 0 10293553.044 11870479.528 -20059324.469 10 0 60999 45900.00000 0 7789624.302 11273796.407 -21481832.293 10 0 60999 46800.00000 0 5099973.642 10847009.456 -22485788.982 10 0 60999 47700.00000 0 2289596.670 10616772.796 -23051680.690 10 0 60999 48600.00000 0 -571958.178 10597918.340 -23168553.429 10 0 60999 49500.00000 0 -3413252.465 10792807.214 -22834222.122 10 0 60999 50400.00000 0 -6163697.025 11191227.037 -22055306.211 10 0 60999 51300.00000 0 -8756253.438 11770838.786 -20847091.723 10 0 60999 52200.00000 0 -11129985.284 12498153.559 -19233223.109 10 0 60999 53100.00000 0 -13232353.305 13329997.090 -17245231.553 10 0 60999 54000.00000 0 -15021159.667 14215399.190 -14921909.644 10 0 60999 54900.00000 0 -16466061.469 15097827.452 -12308545.258 10 0 60999 55800.00000 0 -17549591.914 15917670.075 -9456030.289 10 0 60999 56700.00000 0 -18267648.428 16614862.336 -6419862.256 10 0 60999 57600.00000 0 -18629429.484 17131545.397 -3259058.805 10 0 60999 58500.00000 0 -18656825.050 17414645.008 -35006.882 10 0 60999 59400.00000 0 -18383288.494 17418261.347 3189730.667 10 0 60999 60300.00000 0 -17852239.346 17105769.475 6352627.553 10 0 60999 61200.00000 0 -17115065.728 16451542.304 9392401.971 10 0 60999 62100.00000 0 -16228811.687 15442224.063 12250196.751 10 0 60999 63000.00000 0 -15253647.330 14077501.160 14870709.421 10 0 60999 63900.00000 0 -14250228.288 12370338.397 17203251.048 10 0 60999 64800.00000 0 -13277055.070 10346670.651 19202714.452 10 0 60999 65700.00000 0 -12387942.396 8044562.554 20830434.339 10 0 60999 66600.00000 0 -11629703.670 5512870.464 22054923.984 10 0 60999 67500.00000 0 -11040146.481 2809461.252 22852475.528 10 0 60999 68400.00000 0 -10646462.073 -939.656 23207613.333 10 0 60999 69300.00000 0 -10464075.394 -2849183.518 23113392.366 10 0 60999 70200.00000 0 -10496003.416 -5664317.830 22571536.185 10 0 60999 71100.00000 0 -10732748.659 -8376283.744 21592411.693 10 0 60999 72000.00000 0 -11152732.828 -10918581.390 20194840.523 10 0 60999 72900.00000 0 -11723253.379 -13230794.260 18405749.621 10 0 60999 73800.00000 0 -12401924.107 -15260869.079 16259666.388 10 0 60999 74700.00000 0 -13138540.659 -16967057.144 13798066.543 10 0 60999 75600.00000 0 -13877293.903 -18319436.572 11068585.708 10 0 60999 76500.00000 0 -14559239.042 -19300951.790 8124108.433 10 0 60999 77400.00000 0 -15124917.099 -19907926.284 5021751.153 10 0 60999 78300.00000 0 -15517018.250 -20150026.427 1821757.967 10 0 60999 79200.00000 0 -15682974.044 -20049677.187 -1413669.688 10 0 60999 80100.00000 0 -15577367.852 -19640953.645 -4621586.505 10 0 60999 81000.00000 0 -15164060.057 -18967994.683 -7739535.745 10 0 60999 81900.00000 0 -14417936.111 -18083005.716 -10706775.673 10 0 60999 82800.00000 0 -13326201.465 -17043935.157 -13465474.841 10 0 60999 83700.00000 0 -11889166.427 -15911923.444 -15961851.626 10 0 60999 84600.00000 0 -10120485.812 -14748633.391 -18147234.493 10 0 60999 85500.00000 0 -8046841.512 -13613575.741 -19979021.187 10 0 61000 0.00000 0 -5707080.171 -12561544.089 -21421517.129 10 0 61000 900.00000 0 -3150839.866 -11640267.876 -22446636.809 10 0 61000 1800.00000 0 -436725.992 -10888384.607 -23034452.357 10 0 61000 2700.00000 0 2369891.737 -10333815.280 -23173581.201 10 0 61000 3600.00000 0 5199366.051 -9992612.925 -22861403.492 10 0 61000 4500.00000 0 7980439.904 -9868331.773 -22104106.330 10 0 61000 5400.00000 0 10642983.685 -9951942.941 -20916554.364 10 0 61000 6300.00000 0 13120687.755 -10222299.108 -19321989.905 10 0 61000 7200.00000 0 15353598.252 -10647127.328 -17351569.087 10 0 61000 8100.00000 0 17290390.959 -11184506.710 -15043743.816 10 0 61000 9000.00000 0 18890289.250 -11784767.283 -12443502.213 10 0 61000 9900.00000 0 20124547.269 -12392728.629 -9601483.078 10 0 61000 10800.00000 0 20977437.937 -12950182.658 -6572982.282 10 0 61000 11700.00000 0 21446706.355 -13398514.873 -3416871.050 10 0 61000 12600.00000 0 21543471.620 -13681352.809 -194447.805 10 0 61000 13500.00000 0 21291583.319 -13747129.571 3031753.685 10 0 61000 14400.00000 0 20726461.687 -13551454.256 6199176.387 10 0 61000 15300.00000 0 19893471.880 -13059189.480 9246448.707 10 0 61000 16200.00000 0 18845902.033 -12246148.863 12114566.556 10 0 61000 17100.00000 0 17642630.881 -11100343.368 14748026.402 10 0 61000 18000.00000 0 16345583.259 -9622724.463 17095888.113 10 0 61000 18900.00000 0 15017080.038 -7827392.984 19112748.088 10 0 61000 19800.00000 0 13717192.962 -5741264.672 20759605.098 10 0 61000 20700.00000 0 12501214.204 -3403205.726 22004603.384 10 0 61000 21600.00000 0 11417345.284 -862673.274 22823639.922 10 0 61000 22500.00000 0 10504700.759 1822084.159 23200825.197 10 0 61000 23400.00000 0 9791708.952 4586193.270 23128789.344 10 0 61000 24300.00000 0 9294975.696 7360601.824 22608828.084 10 0 61000 25200.00000 0 9018658.055 10074704.464 21650885.513 10 0 61000 26100.00000 0 8954374.183 12659041.600 20273373.474 10 0 61000 27000.00000 0 9081653.442 15047961.263 18502829.957 10 0 61000 27900.00000 0 9368908.720 17182134.808 16373421.737 10 0 61000 28800.00000 0 9774891.138 19010822.820 13926299.266 10 0 61000 29700.00000 0 10250567.108 20493797.264 11208814.704 10 0 61000 30600.00000 0 10741339.785 21602839.655 8273616.654 10 0 61000 31500.00000 0 11189521.938 22322752.039 5177637.957 10 0 61000 32400.00000 0 11536956.191 22651837.690 1980995.339 10 0 61000 33300.00000 0 11727671.630 22601830.385 -1254178.136 10 0 61000 34200.00000 0 11710463.617 22197274.327 -4464944.917 10 0 61000 35100.00000 0 11441286.284 21474380.111 -7588795.024 10 0 61000 36000.00000 0 10885354.679 20479404.545 -10564873.346 10 0 61000 36900.00000 0 10018865.511 19266622.623 -13335177.060 10 0 61000 37800.00000 0 8830261.552 17895977.585 -15845698.498 10 0 61000 38700.00000 0 7320984.080 16430508.898 -18047489.923 10 0 61000 39600.00000 0 5505679.661 14933667.591 -19897628.240 10 0 61000 40500.00000 0 3411850.886 13466633.154 -21360059.939 10 0 61000 41400.00000 0 1078964.431 12085746.021 -22406309.224 10 0 61000 42300.00000 0 -1442946.998 10840164.533 -23016035.139 10 0 61000 43200.00000 0 -4095130.738 9769845.421 -23177426.903 10 0 61000 44100.00000 0 -6812331.280 8903932.794 -22887429.947 10 0 61000 45000.00000 0 -9525285.688 8259622.963 -22151798.715 10 0 61000 45900.00000 0 -12163393.052 7841552.017 -20984975.744 10 0 61000 46800.00000 0 -14657446.482 7641730.637 -19409800.042 10 0 61000 47700.00000 0 -16942313.677 7640027.423 -17457051.124 10 0 61000 48600.00000 0 -18959454.455 7805178.661 -15164838.282 10 0 61000 49500.00000 0 -20659170.727 8096280.231 -12577847.679 10 0 61000 50400.00000 0 -22002495.737 8464697.058 -9746462.628 10 0 61000 51300.00000 0 -22962644.825 8856308.008 -6725774.850 10 0 61000 52200.00000 0 -23525968.493 9213990.155 -3574506.600 10 0 61000 53100.00000 0 -23692369.573 9480236.540 -353865.212 10 0 61000 54000.00000 0 -23475168.901 9599796.189 2873647.178 10 0 61000 54900.00000 0 -22900426.956 9522224.628 6045445.342 10 0 61000 55800.00000 0 -22005751.671 9204237.195 9100070.417 10 0 61000 56700.00000 0 -20838643.837 8611766.142 11978373.883 10 0 61000 57600.00000 0 -19454450.570 7721635.157 14624653.562 10 0 61000 58500.00000 0 -17914013.159 6522781.223 16987720.422 10 0 61000 59400.00000 0 -16281107.904 5016972.621 19021876.550 10 0 61000 60300.00000 0 -14619786.556 3218992.893 20687786.655 10 0 61000 61200.00000 0 -12991726.686 1156282.553 21953227.512 10 0 61000 62100.00000 0 -11453701.462 -1131947.397 22793702.160 10 0 61000 63000.00000 0 -10055273.051 -3596094.619 23192908.079 10 0 61000 63900.00000 0 -8836804.533 -6177981.579 23143051.063 10 0 61000 64800.00000 0 -7827872.002 -8813035.294 22644999.116 10 0 61000 65700.00000 0 -7046142.171 -11432742.327 21708273.279 10 0 61000 66600.00000 0 -6496761.808 -13967279.299 20350875.002 10 0 61000 67500.00000 0 -6172284.371 -16348211.637 18598952.357 10 0 61000 68400.00000 0 -6053137.205 -18511150.077 16486310.179 10 0 61000 69300.00000 0 -6108610.333 -20398255.509 14053772.019 10 0 61000 70200.00000 0 -6298326.132 -21960488.450 11348404.640 10 0 61000 71100.00000 0 -6574128.916 -23159509.293 8422618.494 10 0 61000 72000.00000 0 -6882315.509 -23969149.416 5333160.408 10 0 61000 72900.00000 0 -7166113.041 -24376390.668 2140017.123 10 0 61000 73800.00000 0 -7368299.215 -24381811.026 -1094749.430 10 0 61000 74700.00000 0 -7433853.600 -23999476.525 -4308212.359 10 0 61000 75600.00000 0 -7312526.632 -23256282.926 -7437811.445 10 0 61000 76500.00000 0 -6961215.954 -22190774.045 -10422581.291 10 0 61000 77400.00000 0 -6346047.572 -20851486.116 -13204350.814 10 0 61000 78300.00000 0 -5444071.605 -19294887.924 -15728889.384 10 0 61000 79200.00000 0 -4244498.760 -17583003.882 -17946975.992 10 0 61000 80100.00000 0 -2749423.240 -15780820.858 -19815369.380 10 0 61000 81000.00000 0 -973999.753 -13953588.806 -21297659.333 10 0 61000 81900.00000 0 1053934.324 -12164129.624 -22364981.891 10 0 61000 82800.00000 0 3294776.870 -10470268.179 -22996584.232 10 0 61000 83700.00000 0 5698581.244 -8922493.906 -23180228.175 10 0 61000 84600.00000 0 8206919.713 -7561951.285 -22912424.719 10 0 61000 85500.00000 0 10755112.162 -6418843.225 -22198495.415 10 0 61001 0.00000 0 13274726.655 -5511313.639 -21052460.109 10 0 61001 900.00000 0 15696248.519 -4844854.426 -19496753.153 10 0 61001 1800.00000 0 17951802.983 -4412261.324 -17561775.946 10 0 61001 2700.00000 0 19977822.153 -4194136.985 -15285293.159 10 0 61001 3600.00000 0 21717541.708 -4159919.327 -12711686.555 10 0 61001 4500.00000 0 23123224.813 -4269389.299 -9891081.090 10 0 61001 5400.00000 0 24158020.790 -4474592.645 -6878361.092 10 0 61001 6300.00000 0 24797381.858 -4722092.884 -3732096.275 10 0 61001 7200.00000 0 25029979.959 -4955459.009 -513399.121 10 0 61001 8100.00000 0 24858086.802 -5117881.810 2715263.712 10 0 61001 9000.00000 0 24297402.817 -5154807.679 5891282.559 10 0 61001 9900.00000 0 23376343.756 -5016478.433 8953114.851 10 0 61001 10800.00000 0 22134816.256 -4660269.991 11841470.856 10 0 61001 11700.00000 0 20622534.724 -4052731.578 14500452.568 10 0 61001 12600.00000 0 18896950.691 -3171239.918 16878624.403 10 0 61001 13500.00000 0 17020881.467 -2005199.123 18929996.011 10 0 61001 14400.00000 0 15059936.842 -556736.027 20614899.438 10 0 61001 15300.00000 0 13079850.537 1159138.461 21900744.935 10 0 61001 16200.00000 0 11143826.523 3114909.382 22762642.116 10 0 61001 17100.00000 0 9310009.369 5271464.404 23183875.543 10 0 61001 18000.00000 0 7629182.471 7579490.921 23156226.353 10 0 61001 18900.00000 0 6142788.550 9981307.325 22680134.114 10 0 61001 19800.00000 0 4881353.547 12413054.461 21764695.716 10 0 61001 20700.00000 0 3863378.691 14807158.329 20427500.757 10 0 61001 21600.00000 0 3094746.368 17094963.764 18694305.604 10 0 61001 22500.00000 0 2568664.476 19209431.316 16598551.083 10 0 61001 23400.00000 0 2266151.809 21087786.395 14180731.529 10 0 61001 24300.00000 0 2157044.630 22674011.017 11487625.778 10 0 61001 25200.00000 0 2201482.747 23921074.336 8571403.431 10 0 61001 26100.00000 0 2351813.191 24792808.262 5488622.454 10 0 61001 27000.00000 0 2554831.571 25265348.738 2299136.660 10 0 61001 27900.00000 0 2754266.550 25328080.983 -935066.154 10 0 61001 28800.00000 0 2893401.973 24984047.579 -4151072.725 10 0 61001 29700.00000 0 2917724.790 24249800.863 -7286275.474 10 0 61001 30600.00000 0 2777485.337 23154704.632 -10279601.419 10 0 61001 31500.00000 0 2430059.775 21739713.704 -13072713.667 10 0 61001 32400.00000 0 1842012.733 20055682.253 -15611160.793 10 0 61001 33300.00000 0 990770.726 18161272.091 -17845450.375 10 0 61001 34200.00000 0 -134166.423 16120549.273 -19732024.554 10 0 61001 35100.00000 0 -1530529.197 14000370.706 -21234117.662 10 0 61001 36000.00000 0 -3183128.017 11867671.269 -22322478.560 10 0 61001 36900.00000 0 -5064256.465 9786766.128 -22975943.235 10 0 61001 37800.00000 0 -7134632.030 7816781.909 -23181846.485 10 0 61001 38700.00000 0 -9344835.441 6009324.633 -22936264.885 10 0 61001 39600.00000 0 -11637188.394 4406481.977 -22244086.717 10 0 61001 40500.00000 0 -13947991.043 3039242.868 -21118908.079 10 0 61001 41400.00000 0 -16210025.404 1926399.483 -19582757.823 10 0 61001 42300.00000 0 -18355219.726 1073976.143 -17665657.385 10 0 61001 43200.00000 0 -20317362.164 475207.081 -15405024.775 10 0 61001 44100.00000 0 -22034750.235 111061.871 -12844935.017 10 0 61001 45000.00000 0 -23452665.295 -48705.861 -10035252.180 10 0 61001 45900.00000 0 -24525568.897 -44032.841 -7030650.528 10 0 61001 46800.00000 0 -25218929.721 77389.975 -3889544.516 10 0 61001 47700.00000 0 -25510605.495 262380.595 -672949.019 10 0 61001 48600.00000 0 -25391723.160 454759.317 2556707.532 10 0 61001 49500.00000 0 -24867021.708 597965.901 5736793.775 10 0 61001 50400.00000 0 -23954644.672 637689.532 8805686.134 10 0 61001 51300.00000 0 -22685392.225 524400.363 11703956.307 10 0 61001 52200.00000 0 -21101465.218 215676.021 14375512.987 10 0 61001 53100.00000 0 -19254754.422 -321774.635 16768676.384 10 0 61001 54000.00000 0 -17204746.742 -1110475.267 18837165.813 10 0 61001 54900.00000 0 -15016135.569 -2161001.806 20540982.439 10 0 61001 55800.00000 0 -12756234.277 -3471307.653 21847171.404 10 0 61001 56700.00000 0 -10492299.484 -5026582.931 22730449.899 10 0 61001 57600.00000 0 -8288874.019 -6799654.478 23173690.159 10 0 61001 58500.00000 0 -6205258.532 -8751911.103 23168248.848 10 0 61001 59400.00000 0 -4293215.190 -10834717.204 22714136.916 10 0 61001 60300.00000 0 -2594997.427 -12991257.862 21820026.569 10 0 61001 61200.00000 0 -1141786.457 -15158740.692 20503094.714 10 0 61001 62100.00000 0 47401.236 -17270864.902 18788704.888 10 0 61001 63000.00000 0 966290.407 -19260456.653 16709932.502 10 0 61001 63900.00000 0 1621383.557 -21062162.342 14306941.003 10 0 61001 64800.00000 0 2031455.709 -22615088.442 11626219.386 10 0 61001 65700.00000 0 2226528.211 -23865277.966 8719694.253 10 0 61001 66600.00000 0 2246364.220 -24767919.689 5643732.369 10 0 61001 67500.00000 0 2138548.805 -25289196.736 2458052.121 10 0 61001 68400.00000 0 1956234.541 -25407695.690 -775435.446 10 0 61001 69300.00000 0 1755648.073 -25115315.454 -3993833.409 10 0 61001 70200.00000 0 1593463.746 -24417635.993 -7134489.614 10 0 61001 71100.00000 0 1524156.620 -23333729.872 -10136226.313 10 0 61001 72000.00000 0 1597448.438 -21895423.207 -12940543.640 10 0 61001 72900.00000 0 1855956.501 -20146036.231 -15492772.161 10 0 61001 73800.00000 0 2333146.919 -18138655.953 -17743150.704 10 0 61001 74700.00000 0 3051680.794 -15934013.496 -19647807.264 10 0 61001 75600.00000 0 4022225.045 -13598055.582 -21169622.875 10 0 61001 76500.00000 0 5242779.723 -11199312.618 -22278960.990 10 0 61001 77400.00000 0 6698551.412 -8806174.370 -22954247.742 10 0 61001 78300.00000 0 8362379.017 -6484187.889 -23182391.780 10 0 61001 79200.00000 0 10195694.606 -4293491.103 -22959035.664 10 0 61001 80100.00000 0 12149979.186 -2286489.437 -22288634.376 10 0 61001 81000.00000 0 14168652.297 -505872.153 -21184359.939 10 0 61001 81900.00000 0 16189315.991 1016949.548 -19667834.658 10 0 61001 82800.00000 0 18146258.786 2262918.720 -17768698.862 10 0 61001 83700.00000 0 19973114.353 3225879.911 -15524022.270 10 0 61001 84600.00000 0 21605563.230 3912576.694 -12977571.145 10 0 61001 85500.00000 0 22983964.253 4342101.935 -10178946.226 10 0 61002 0.00000 0 24055805.353 4544826.338 -7182609.171 10 0 61002 900.00000 0 24777871.880 4560852.771 -4046815.470 10 0 61002 1800.00000 0 25118040.690 4438063.394 -832479.255 10 0 61002 2700.00000 0 25056627.536 4229844.061 2398012.806 10 0 61002 3600.00000 0 24587230.709 3992583.073 5582011.197 10 0 61002 4500.00000 0 23717037.306 3783050.876 8657814.768 10 0 61002 5400.00000 0 22466580.208 3655771.670 11565859.854 10 0 61002 6300.00000 0 20868956.868 3660497.868 14249864.753 10 0 61002 7200.00000 0 18968543.207 3839893.507 16657908.034 10 0 61002 8100.00000 0 16819256.628 4227523.744 18743420.864 10 0 61002 9000.00000 0 14482440.428 4846234.446 20466075.330 10 0 61002 9900.00000 0 12024457.163 5706989.623 21792552.883 10 0 61002 10800.00000 0 9514090.056 6808215.351 22697179.320 10 0 61002 11700.00000 0 7019859.040 8135678.058 23162415.175 10 0 61002 12600.00000 0 4607361.312 9662903.060 23179192.854 10 0 61002 13500.00000 0 2336745.049 11352117.150 22747094.459 10 0 61002 14400.00000 0 260419.472 13155677.616 21874366.850 10 0 61002 15300.00000 0 -1578905.085 15017930.023 20577773.124 10 0 61002 16200.00000 0 -3149766.805 16877419.316 18882282.448 10 0 61002 17100.00000 0 -4433028.014 18669363.993 16820602.901 10 0 61002 18000.00000 0 -5422432.286 20328291.679 14432564.798 10 0 61002 18900.00000 0 -6124619.804 21790727.201 11764364.778 10 0 61002 19800.00000 0 -6558600.049 22997821.309 8867683.735 10 0 61002 20700.00000 0 -6754703.537 23897809.911 5798694.361 10 0 61002 21600.00000 0 -6753056.291 24448199.988 2616976.641 10 0 61002 22500.00000 0 -6601641.096 24617589.212 -615638.166 10 0 61002 23400.00000 0 -6354027.397 24387041.149 -3836272.524 10 0 61002 24300.00000 0 -6066866.263 23750956.344 -6982232.679 10 0 61002 25200.00000 0 -5797257.208 22717400.793 -9992238.974 10 0 61002 26100.00000 0 -5600099.607 21307876.266 -12807631.224 10 0 61002 27000.00000 0 -5525542.421 19556540.779 -15373524.377 10 0 61002 27900.00000 0 -5616641.902 17508911.028 -17639890.625 10 0 61002 28800.00000 0 -5907328.265 15220100.816 -19562545.609 10 0 61002 29700.00000 0 -6420768.995 12752669.356 -21104018.563 10 0 61002 30600.00000 0 -7168199.485 10174169.868 -22234288.712 10 0 61002 31500.00000 0 -8148271.596 7554501.687 -22931373.214 10 0 61002 32400.00000 0 -9346948.491 4963177.119 -23181755.109 10 0 61002 33300.00000 0 -10737950.715 2466617.709 -22980643.134 10 0 61002 34200.00000 0 -12283734.962 125593.033 -22332058.758 10 0 61002 35100.00000 0 -13936964.278 -2007091.269 -21248749.297 10 0 61002 36000.00000 0 -15642407.653 -3888560.361 -19751929.433 10 0 61002 36900.00000 0 -17339188.757 -5487410.908 -17870856.889 10 0 61002 37800.00000 0 -18963288.940 -6784762.853 -15642251.208 10 0 61002 38700.00000 0 -20450198.933 -7774780.224 -13109567.683 10 0 61002 39600.00000 0 -21737607.567 -8464641.470 -10322141.265 10 0 61002 40500.00000 0 -22768014.431 -8873963.003 -7334217.818 10 0 61002 41400.00000 0 -23491156.782 -9033702.672 -4203892.196 10 0 61002 42300.00000 0 -23866149.062 -8984591.636 -991974.424 10 0 61002 43200.00000 0 -23863245.668 -8775162.720 2239193.484 10 0 61002 44100.00000 0 -23465153.670 -8459460.103 5426946.781 10 0 61002 45000.00000 0 -22667841.208 -8094528.076 8509509.656 10 0 61002 45900.00000 0 -21480808.508 -7737785.558 11427185.961 10 0 61002 46800.00000 0 -19926810.906 -7444397.283 14123506.369 10 0 61002 47700.00000 0 -18041046.025 -7264752.276 16546310.394 10 0 61002 48600.00000 0 -15869839.280 -7242155.330 18648743.371 10 0 61002 49500.00000 0 -13468882.368 -7410827.927 20390150.283 10 0 61002 50400.00000 0 -10901097.560 -7794301.992 21736850.459 10 0 61002 51300.00000 0 -8234215.549 -8404273.427 22662779.426 10 0 61002 52200.00000 0 -5538166.106 -9239963.374 23149986.689 10 0 61002 53100.00000 0 -2882388.156 -10288014.246 23188980.628 10 0 61002 54000.00000 0 -333169.026 -11522925.702 22778914.334 10 0 61002 54900.00000 0 2048878.621 -12908013.590 21927608.783 10 0 61002 55800.00000 0 4211099.118 -14396853.431 20651412.414 10 0 61002 56700.00000 0 6110742.043 -15935149.983 18974898.882 10 0 61002 57600.00000 0 7716496.393 -17462956.665 16930407.509 10 0 61002 58500.00000 0 9009547.371 -18917153.740 14557433.773 10 0 61002 59400.00000 0 9984111.901 -20234082.911 11901879.978 10 0 61002 60300.00000 0 10647430.328 -21352228.810 9015179.049 10 0 61002 61200.00000 0 11019214.299 -22214835.113 5953307.103 10 0 61002 62100.00000 0 11130573.566 -22772345.013 2775703.014 10 0 61002 63000.00000 0 11022466.526 -22984562.407 -455884.603 10 0 61002 63900.00000 0 10743739.706 -22822441.315 -3678600.532 10 0 61002 64800.00000 0 10348839.144 -22269426.298 -6829712.379 10 0 61002 65700.00000 0 9895291.024 -21322285.368 -9847841.494 10 0 61002 66600.00000 0 9441059.102 -19991398.316 -12674170.207 10 0 61002 67500.00000 0 9041892.079 -18300486.524 -15253600.562 10 0 61002 68400.00000 0 8748774.709 -16285794.216 -17535840.629 10 0 61002 69300.00000 0 8605592.149 -13994754.582 -19476395.971 10 0 61002 70200.00000 0 8647107.886 -11484196.236 -21037445.970 10 0 61002 71100.00000 0 8897342.134 -8818165.065 -22188587.208 10 0 61002 72000.00000 0 9368420.314 -6065452.897 -22907429.031 10 0 61002 72900.00000 0 10059940.990 -3296936.634 -23180029.589 10 0 61002 73800.00000 0 10958890.360 -582839.413 -23001164.085 10 0 61002 74700.00000 0 12040107.000 2009971.652 -22374420.356 10 0 61002 75600.00000 0 13267277.039 4420538.442 -21312120.504 10 0 61002 76500.00000 0 14594417.495 6596109.423 -19835070.735 10 0 61002 77400.00000 0 15967784.691 8494086.802 -17972144.968 10 0 61002 78300.00000 0 17328126.835 10083543.256 -15759711.052 10 0 61002 79200.00000 0 18613185.325 11346246.559 -13240911.439 10 0 61002 80100.00000 0 19760338.967 12277151.328 -10464813.089 10 0 61002 81000.00000 0 20709279.437 12884339.598 -7485443.809 10 0 61002 81900.00000 0 21404605.228 13188415.223 -4360734.439 10 0 61002 82800.00000 0 21798224.905 13221379.941 -1151388.094 10 0 61002 83700.00000 0 21851468.881 13025040.643 2080301.081 10 0 61002 84600.00000 0 21536821.322 12649016.856 5271656.360 10 0 61002 85500.00000 0 20839200.007 12148433.840 8360830.470 99